Regional Weather Roundup
Issued by NWS

Home | Current Version | Previous Version | Text Only | Print | Product List | Glossary On
Versions: 1 2 3 4 5 6 7 8 9 10 11 12 13 14 15 16 17 18 19 20 21 22 23 24 25 26 27 28 29 30 31 32 33 34 35 36 37 38 39 40 41 42 43 44 45 46 47 48 49 50
000
ASUS43 KFSD 100010
RWRSD

WEATHER ROUNDUP FOR SOUTH DAKOTA
NATIONAL WEATHER SERVICE SIOUX FALLS SD
700 PM CDT WED JUL 09 2014

NOTE: "FAIR" INDICATES FEW OR NO CLOUDS BELOW 12,000 FEET WITH NO
SIGNIFICANT WEATHER AND/OR OBSTRUCTIONS TO VISIBILITY.


SDZ001>005-009-010-012>017-100100-
NORTHWEST AND NORTH CENTRAL SOUTH DAKOTA

CITY           SKY/WX    TMP DP  RH WIND       PRES   REMARKS
BUFFALO          N/A     80  55  42 SE16      29.89F
FAITH            N/A     80  54  40 SE14      29.97F
MOBRIDGE       SUNNY     80  51  36 SE7       29.94F HAZE
$$

SDZ012>016-024>037-041>051-057-063-072>074-100100-
SOUTHWEST AND SOUTH CENTRAL SOUTH DAKOTA

CITY           SKY/WX    TMP DP  RH WIND       PRES   REMARKS
RAPID CTY ARPT SUNNY     77  56  48 SE14      29.97F
PIERRE         MOSUNNY   79  59  50 SE6       29.93F
CUSTER         MOSUNNY   69  54  58 E13       30.09F
ELLSWORTH AFB  SUNNY     78  56  46 S13G20    29.98F
PHILIP         SUNNY     79  53  40 SE12      29.95F
PINE RIDGE     SUNNY     78  61  55 E17       29.95F
WINNER         FAIR      75  57  53 S12G18    29.97F
$$

SDZ004>011-016>023-039-040-100100-
NORTHEAST SOUTH DAKOTA

CITY           SKY/WX    TMP DP  RH WIND       PRES   REMARKS
ABERDEEN       SUNNY     75  55  49 E7        29.99F
WATERTOWN      SUNNY     76  52  43 N6        30.00F
SISSETON         N/A     77  53  43 CALM      29.98F
$$

SDZ017-020-022-023-036>040-048>070-100100-
SOUTHEAST SOUTH DAKOTA

CITY           SKY/WX    TMP DP  RH WIND       PRES   REMARKS
SIOUX FALLS    MOSUNNY   81  55  40 NW5       29.98F
HURON          SUNNY     80  55  42 NE8       29.96F HAZE
CHAMBERLAIN    SUNNY     78  57  47 S7        29.95F
MITCHELL       SUNNY     81  59  47 E6        29.96F HAZE
YANKTON        SUNNY     77  61  57 SW13      29.98F
$$

ABBREVIATIONS USED IN REMARKS
   TC - TEMPERATURE IN CELSIUS
  WCI - WIND CHILL INDEX
   HX - HEAT INDEX
  VSB - VISIBILITY



USA.gov is the U.S. government's official web portal to all federal, state and local government web resources and services.